Wind_Speed
11 9 9 9 8 7 8 8 7 6 6 6 5 3 4 6 6 6 6 5 5 4 4 5 6 4 3 6 7 8 8 9 8 9 9 7 8 9 8 9 11 13 10 9 9 9 9 9 7 8 7 5 5 8 9 9 10 11 11 11 11 11 11 10 10 10 9 8 9 10 9 9 9 10 11 11 11 10 9 10 11 11 11 11 11
11 9 9 8 7 6 6 6 6 6 6 6 5 3 3 2 3 4 5 4 4 4 5 5 6 6 4 9 7 8 9 11 8 10 11 9 10 10 8 8 10 13 11 9 9 8 9 9 8 8 7 5 6 6 7 8 9 10 10 11 11 11 11 10 10 9 9 9 9 8 8 8 9 9 9 9 9 8 9 9 9 10 10 11 11
12 10 8 7 6 6 5 4 4 5 5 5 5 4 4 2 2 4 5 4 3 3 5 5 6 6 7 10 5 11 10 11 10 11 15 12 12 11 9 9 9 11 11 10 9 9 8 8 8 8 7 6 6 4 4 6 7 8 9 10 10 10 10 10 9 9 9 9 8 8 7 7 8 7 7 7 8 8 9 9 9 10 10 10 11
12 9 8 7 6 6 5 4 3 3 4 4 5 6 5 2 2 3 3 3 4 4 4 6 6 5 8 11 5 16 19 8 9 10 14 14 14 12 11 10 10 10 11 10 9 10 8 7 8 8 7 7 6 5 4 4 4 6 7 8 9 9 9 8 8 8 8 8 8 7 6 6 6 6 6 6 7 8 8 8 9 9 9 10 10
10 10 9 7 6 6 5 4 3 2 3 3 4 6 5 3 3 3 2 3 4 5 5 6 6 5 7 10 7 12 16 15 7 8 12 11 12 10 11 11 10 10 9 9 9 11 9 7 8 7 6 7 7 6 5 4 3 4 5 6 7 8 8 8 8 7 7 7 7 7 6 6 5 5 5 6 6 6 6 7 8 8 8 8 8
8 10 10 7 7 6 5 4 3 3 2 2 3 4 2 2 4 3 2 2 4 5 6 7 6 6 6 5 6 5 8 15 12 4 11 12 12 10 11 10 9 9 8 7 8 10 9 7 7 6 6 6 6 6 5 4 3 3 4 4 6 6 7 7 7 8 7 6 6 6 6 6 6 5 6 5 5 5 5 6 6 6 6 6 6
6 9 9 6 6 6 7 6 4 5 5 4 3 3 1 2 3 3 2 3 3 4 6 7 7 6 4 2 2 5 7 10 12 6 3 8 11 11 11 11 10 8 7 6 7 9 9 7 7 6 7 7 5 5 5 4 3 3 3 3 4 4 5 5 6 7 7 6 5 5 5 6 6 6 6 5 5 5 5 5 5 4 5 6 6
6 8 9 5 4 4 5 5 5 5 5 4 3 2 2 2 3 4 3 1 3 3 4 6 7 5 2 2 2 6 7 4 6 8 4 4 8 8 9 12 12 9 8 7 7 8 8 8 6 6 8 8 7 7 5 4 4 4 3 3 3 4 3 3 4 5 5 5 4 4 4 4 5 5 5 5 5 5 4 4 4 4 4 5 6
7 8 9 6 5 6 6 6 6 6 5 4 4 4 3 2 2 4 5 2 2 3 4 4 5 4 1 1 3 6 6 3 5 7 4 4 7 7 6 9 9 9 9 8 7 7 8 8 6 5 6 7 7 7 5 5 5 4 4 3 2 3 3 3 4 5 5 4 3 3 3 3 3 3 3 4 4 4 4 4 3 3 3 4 4
6 7 9 7 6 8 8 8 7 5 5 4 5 4 3 3 2 2 4 4 1 2 4 1 1 2 1 1 3 4 4 3 4 5 5 4 5 7 7 7 7 7 8 8 7 7 8 8 7 5 5 5 7 7 6 5 5 5 4 3 2 2 2 3 3 5 4 3 2 2 3 3 4 3 1 2 3 4 4 3 3 2 2 3 3
5 5 8 7 6 7 7 7 7 5 5 5 4 4 4 4 4 3 3 4 2 1 2 2 1 0 0 1 1 1 2 2 2 4 7 8 7 8 7 7 6 8 8 6 6 7 8 7 6 5 3 4 6 6 7 7 8 7 5 5 3 0 1 3 2 3 3 2 1 1 2 3 4 4 2 1 1 2 3 3 3 2 2 2 2
6 6 7 7 6 6 6 6 6 6 6 6 5 4 4 5 5 4 2 3 2 0 1 2 3 3 1 1 0 1 2 2 3 6 9 11 11 9 7 7 8 10 9 6 5 7 7 6 5 3 3 4 5 6 6 6 7 7 6 6 5 3 1 2 2 2 2 1 1 0 1 2 2 3 3 1 1 1 2 2 2 3 2 1 1
7 7 8 6 7 7 6 6 6 5 4 6 6 4 5 4 4 5 3 3 3 2 2 4 4 4 2 0 0 1 1 2 6 8 9 11 14 13 9 8 9 11 9 8 8 6 6 7 6 4 4 5 6 6 5 5 6 5 5 6 6 6 4 2 2 3 3 2 0 0 1 2 1 2 3 2 1 1 1 1 2 2 1 1 1
8 8 8 6 7 7 6 6 6 5 3 5 6 5 5 4 3 3 3 3 3 3 4 4 4 3 2 2 1 1 1 3 7 9 9 11 15 17 13 9 9 10 9 9 10 7 6 6 6 6 6 6 6 7 6 6 6 5 4 4 4 5 6 4 3 3 3 3 3 2 2 2 2 1 2 2 1 1 2 1 0 1 1 1 1
8 8 8 7 7 7 6 5 5 4 4 4 4 5 4 3 3 3 3 3 2 3 3 3 4 4 2 1 0 0 1 4 8 10 12 13 14 15 14 12 11 11 11 11 10 9 7 6 6 7 7 6 5 7 8 7 7 6 6 5 4 4 5 3 2 3 4 5 5 4 4 3 2 2 2 2 1 1 2 1 1 2 1 1 1
8 9 8 8 7 7 7 6 5 4 4 4 3 2 3 3 2 3 4 4 2 3 2 0 3 3 1 1 1 1 2 4 7 10 13 15 16 16 16 16 15 14 14 13 11 11 9 8 8 8 8 7 6 6 7 7 6 5 6 7 6 5 5 3 1 2 3 4 5 4 4 5 4 3 2 2 2 2 2 2 2 2 2 2 2
8 9 9 8 8 8 7 7 6 4 4 5 4 4 5 4 3 4 4 4 4 4 4 2 2 2 2 1 1 1 2 4 6 8 13 15 17 17 17 19 19 17 15 13 13 12 10 10 10 9 9 9 9 8 6 6 6 4 5 5 5 5 6 6 4 4 4 5 4 3 4 6 6 4 2 1 2 2 2 2 2 2 3 3 3
9 10 10 8 8 7 6 7 6 6 8 9 9 8 9 8 6 7 7 5 5 7 6 4 2 3 4 1 1 2 3 4 3 4 10 12 15 16 16 17 19 19 16 13 14 13 10 9 9 9 10 11 11 10 8 7 6 4 3 2 3 4 5 5 5 5 7 7 7 5 6 7 6 3 4 4 3 3 3 3 3 4 5 4 4
10 9 9 9 8 6 5 5 6 9 11 10 10 10 10 9 9 10 12 11 9 9 8 5 3 4 4 3 2 3 3 3 2 3 5 7 12 18 18 17 17 18 17 14 13 14 13 13 12 11 11 11 11 10 8 6 4 2 1 3 5 5 6 6 5 4 3 3 4 5 7 8 6 4 5 5 3 4 5 5 5 6 7 7 6
9 9 9 8 8 7 6 5 5 10 12 11 10 10 9 10 10 12 14 15 13 12 10 8 5 5 6 6 5 5 5 4 5 6 5 4 8 14 18 20 20 19 17 15 13 12 12 15 16 16 15 12 9 7 7 6 6 6 6 7 8 9 10 10 10 9 9 9 8 5 3 4 6 7 7 6 5 7 8 7 7 8 8 9 7
10 10 10 9 9 9 8 8 8 10 12 11 11 11 10 11 12 12 14 15 14 14 13 10 7 6 6 6 7 8 7 8 8 9 8 5 5 6 11 15 16 17 18 18 17 15 13 13 14 15 15 11 8 7 7 7 8 9 10 11 11 12 11 11 11 11 11 10 10 10 9 6 4 2 3 3 3 7 8 8 9 9 9 10 10
11 11 11 11 11 11 9 9 11 13 12 10 11 12 12 13 13 13 14 14 13 13 12 11 9 8 7 6 9 9 7 7 8 10 9 8 6 6 10 11 9 12 17 18 19 17 15 12 11 11 13 12 10 10 10 10 11 12 12 12 12 12 11 11 12 11 10 9 10 11 10 10 10 8 7 7 6 4 3 3 5 5 4 6 7
11 12 12 12 12 12 11 10 12 12 11 11 12 12 12 13 14 13 14 14 13 13 13 12 11 11 10 10 10 8 7 9 10 11 10 8 7 6 10 12 10 10 15 18 21 20 17 14 12 11 12 14 14 13 13 13 14 14 13 12 11 10 10 10 10 9 8 7 8 8 8 8 8 7 7 7 6 6 5 4 5 6 6 6 6
12 12 12 12 12 12 11 12 12 12 11 12 12 12 13 14 14 14 15 15 14 14 14 14 12 11 11 12 12 11 12 14 13 13 14 13 11 8 11 14 10 9 14 17 19 20 19 15 13 11 10 12 13 13 13 14 14 13 11 11 11 10 10 9 9 8 7 7 7 7 7 7 6 6 5 5 5 5 5 4 4 5 5 6 5
12 12 12 12 12 12 12 12 12 11 11 12 12 12 13 14 14 14 15 14 14 15 15 14 13 13 13 13 12 11 12 13 12 13 15 15 13 10 13 15 12 11 15 17 17 17 18 16 14 12 10 9 9 10 11 11 11 11 10 10 9 9 9 9 8 8 8 8 8 8 8 8 7 7 6 6 6 6 7 7 7 6 6 6 6
12 12 11 11 12 12 12 12 11 11 12 12 13 14 14 14 14 15 15 15 15 16 15 15 14 14 13 13 12 12 11 9 8 10 12 11 14 14 14 14 13 14 16 18 17 15 15 14 12 11 10 8 7 7 9 9 8 9 10 9 9 8 8 8 9 9 9 10 10 10 10 10 10 10 9 9 8 8 8 9 9 9 8 8 8
12 12 12 12 13 12 12 12 12 12 12 12 13 14 14 14 14 15 15 14 15 16 16 16 15 15 14 13 13 13 12 11 11 10 10 11 14 14 13 10 7 8 12 14 16 15 15 14 11 9 9 8 6 6 8 8 7 8 11 11 9 9 8 9 9 10 11 11 11 12 12 12 12 12 12 11 11 11 10 10 10 10 10 10 10
13 13 13 13 13 12 12 11 11 11 11 12 12 13 13 13 14 14 14 13 14 15 15 15 15 15 15 15 14 14 13 13 14 14 13 11 10 7 8 12 8 5 7 8 10 13 16 16 12 9 8 8 7 7 8 8 7 7 8 10 10 10 8 9 11 12 12 13 13 14 13 13 13 13 13 13 13 12 12 11 11 11 11 11 11
15 14 13 13 13 12 11 10 10 11 11 11 11 12 12 13 13 13 13 13 13 14 14 14 14 15 15 15 15 15 14 14 13 13 13 11 11 12 12 13 9 3 5 4 5 8 12 15 15 12 8 7 8 7 6 6 6 3 3 7 10 10 8 10 13 13 14 15 15 15 15 14 14 14 14 14 14 14 13 13 12 12 12 12 12
16 15 14 14 12 12 11 11 10 10 9 9 10 10 11 11 11 11 11 11 12 12 13 13 14 14 14 14 14 14 14 13 12 11 12 12 11 12 13 15 14 10 11 6 4 8 10 11 12 12 10 9 9 7 5 6 5 4 1 5 9 8 7 10 13 13 14 15 16 17 17 17 15 15 14 14 15 15 15 15 14 14 14 14 14
16 16 15 14 13 12 11 10 9 9 8 8 8 8 9 9 9 9 9 9 10 11 10 11 12 12 12 12 11 11 12 12 12 10 11 12 11 10 11 13 16 16 19 13 5 6 10 10 9 8 9 9 8 6 4 5 5 4 2 4 8 7 6 9 12 13 13 14 16 18 20 20 17 15 15 15 15 15 15 16 16 16 16 16 15
17 17 15 14 14 12 11 10 9 9 8 7 7 7 7 7 7 8 7 7 8 8 8 8 9 9 9 9 10 10 11 10 10 9 10 12 12 12 11 11 14 16 20 18 10 7 9 10 7 6 7 7 7 8 7 4 5 1 4 3 8 7 3 7 12 12 12 13 15 17 21 22 19 15 15 14 15 15 15 16 16 16 16 16 16
17 17 15 14 13 12 11 10 9 8 7 6 6 6 5 6 6 6 5 6 7 6 6 7 6 6 7 8 9 9 8 7 6 8 8 7 8 10 10 10 12 14 16 19 15 9 8 8 6 6 6 6 7 8 6 3 4 2 4 3 8 7 2 6 10 10 11 13 15 18 21 22 20 17 15 14 14 15 16 16 16 16 16 16 16
17 16 15 15 13 12 11 10 9 8 7 6 6 5 4 5 5 5 4 5 6 5 4 4 5 5 5 7 8 6 6 5 6 7 6 5 6 9 11 11 12 11 10 14 16 14 11 9 8 6 4 4 6 8 4 1 3 4 4 3 5 6 3 7 11 12 13 14 15 17 19 20 21 19 16 16 16 16 16 16 16 16 16 16 16
17 16 15 15 14 12 11 10 9 8 7 7 5 5 5 4 4 4 3 4 4 4 2 2 3 4 4 5 6 5 5 6 7 8 5 6 9 10 9 9 10 9 9 9 8 10 12 11 10 10 5 2 3 5 4 2 6 6 1 1 4 7 7 10 14 17 16 15 17 18 19 20 22 21 19 20 20 18 17 16 15 15 15 15 16
17 15 15 15 13 13 12 11 11 10 9 8 6 6 5 5 4 3 2 2 2 1 0 0 1 4 3 2 4 4 5 5 5 6 4 5 8 7 4 6 8 5 5 7 8 7 7 6 7 9 5 2 2 3 3 4 6 8 7 6 6 8 11 12 14 17 17 19 21 19 17 19 22 21 21 22 22 20 20 18 16 14 14 15 17
18 15 15 15 14 13 13 12 12 11 10 9 8 6 6 5 4 3 2 0 0 1 3 4 4 3 0 1 2 2 3 4 3 4 4 4 5 4 4 8 9 6 4 5 7 8 7 7 6 5 2 2 3 5 4 4 7 6 7 8 8 9 12 14 14 14 16 21 22 19 17 19 20 20 21 22 22 21 20 18 16 15 15 17 18
17 16 15 15 14 13 13 12 12 12 11 9 9 7 5 5 3 2 3 5 5 4 4 5 6 7 8 6 3 3 2 2 1 1 3 4 2 1 5 9 8 6 5 4 4 5 5 5 4 2 1 2 3 4 4 5 6 6 8 10 10 11 15 16 16 16 16 18 19 18 16 17 19 20 21 23 24 23 20 18 17 16 16 17 17
16 16 14 14 14 12 11 9 7 7 8 6 6 8 5 2 2 2 3 4 4 5 5 6 7 7 9 12 10 3 2 2 2 1 1 1 1 2 3 7 7 4 4 5 4 5 5 5 5 5 3 2 2 3 4 6 7 8 11 13 13 14 15 16 17 18 17 15 16 16 14 15 18 19 21 24 24 23 20 18 17 17 16 16 16
15 15 14 14 14 10 7 5 3 3 4 2 3 7 5 2 2 3 4 5 7 8 7 7 7 6 5 8 11 6 3 2 3 3 2 1 1 2 4 5 3 2 4 5 4 5 6 6 7 8 7 4 2 3 6 9 9 9 10 9 10 13 15 17 18 17 16 16 16 16 15 16 18 20 24 25 22 20 19 18 17 17 16 16 17
13 14 15 13 13 9 4 5 4 3 4 2 3 3 3 3 4 4 5 6 7 8 6 5 5 4 4 4 5 5 4 2 3 4 5 4 2 1 2 3 1 0 2 3 3 4 5 4 5 7 7 6 7 8 9 10 9 7 6 7 10 14 17 18 16 15 15 16 17 17 16 17 20 24 24 21 18 18 19 18 17 16 16 16 17
14 13 14 12 11 8 3 3 3 3 4 3 4 4 4 4 5 5 4 3 2 4 3 3 4 4 4 6 4 4 5 4 4 5 6 6 6 5 4 2 2 1 1 2 3 4 4 3 4 5 5 7 10 11 10 8 7 6 7 11 14 16 17 16 16 16 14 15 17 19 21 21 22 23 21 18 17 17 17 18 18 18 18 19 19
12 10 10 9 8 6 4 3 3 4 7 5 5 6 6 6 5 2 1 3 3 2 2 3 4 5 4 3 3 2 3 3 4 5 6 7 8 9 8 5 4 2 1 1 2 2 3 4 4 4 5 7 9 8 7 7 7 8 12 15 15 15 15 14 16 17 15 15 19 24 26 23 19 18 18 17 16 15 15 17 19 20 21 21 21
9 11 11 10 8 6 7 8 7 7 9 7 6 6 4 4 4 4 4 3 4 4 4 4 5 5 4 4 5 4 2 1 1 3 3 5 6 8 10 9 7 6 4 2 1 1 3 4 4 5 5 6 7 6 6 7 9 12 15 14 12 12 14 15 16 18 19 20 22 24 24 21 17 16 17 16 15 15 16 17 19 20 21 20 20
10 13 13 12 9 7 8 8 8 8 9 8 6 4 5 8 8 6 4 4 6 6 5 5 6 6 5 6 7 5 4 3 1 2 1 3 5 5 7 8 8 8 8 6 5 3 2 2 3 6 5 4 5 5 6 9 11 12 11 11 11 12 15 16 18 21 21 20 20 22 23 21 17 15 16 16 15 16 16 17 18 19 19 20 21
9 10 10 10 9 8 8 8 10 9 7 8 8 7 8 11 9 7 6 7 7 8 8 8 8 7 6 6 7 6 5 5 2 2 1 5 5 2 1 2 2 3 4 5 6 5 4 2 0 2 2 2 2 4 7 9 10 10 9 12 13 15 17 19 20 21 19 16 18 20 21 19 16 14 16 16 16 17 17 16 17 18 20 22 22
9 8 10 11 10 10 11 11 11 9 8 9 10 9 10 11 9 8 7 8 9 10 10 10 9 9 8 8 8 9 9 8 6 4 3 6 6 6 6 5 5 3 2 2 3 3 3 3 3 3 4 5 6 7 10 11 12 12 13 14 15 16 18 19 19 19 16 15 16 15 14 16 18 17 18 17 16 17 16 16 17 19 19 20 21
11 12 14 14 13 14 15 14 13 11 10 10 10 11 11 10 9 8 7 8 11 11 9 8 8 8 9 10 8 7 7 7 7 5 4 5 5 5 6 5 4 2 0 1 2 3 3 3 5 5 6 8 9 10 12 13 13 13 13 13 13 13 14 16 16 16 15 15 17 16 16 18 19 19 20 18 17 19 19 18 18 18 18 19 20
14 15 15 15 15 17 16 13 13 13 12 11 11 11 11 11 10 8 6 9 13 12 8 7 6 7 9 9 8 5 4 5 5 5 6 6 4 4 6 6 2 1 3 2 3 4 5 6 6 7 8 10 11 12 13 13 13 11 9 10 11 10 11 13 13 14 15 16 15 15 15 16 17 19 21 21 20 20 19 17 16 16 18 20 20
15 14 14 15 17 18 16 13 13 14 13 12 11 11 10 11 12 8 6 11 14 12 9 7 6 7 8 7 5 5 5 5 4 6 9 5 3 2 7 6 2 3 5 4 3 4 5 6 6 9 12 13 13 13 13 13 11 9 8 9 10 9 9 10 12 15 16 13 11 13 14 15 17 19 22 23 21 18 16 16 17 18 20 21 22
13 13 13 15 17 16 16 15 13 12 13 12 11 11 10 11 12 9 7 11 13 13 14 12 8 8 9 7 5 5 6 6 5 6 7 3 5 4 6 4 1 2 1 2 3 2 3 5 8 13 16 16 15 14 12 11 10 8 7 7 8 6 8 12 13 14 11 7 9 16 17 16 17 18 19 19 16 14 16 18 18 20 21 22 23
Wind_Direction
183 181 183 183 181 186 197 203 206 211 216 230 248 251 235 249 267 261 257 279 265 255 290 261 236 230 271 299 259 226 211 206 212 190 182 194 170 155 153 140 145 152 153 154 148 150 146 139 131 123 134 142 115 96 89 89 88 90 88 84 82 80 80 79 82 85 84 83 86 91 88 89 94 97 96 90 90 92 92 95 101 102 97 90 83
182 184 183 181 182 187 200 207 208 210 217 228 244 259 243 256 301 261 245 269 243 246 272 257 265 239 264 320 287 248 224 199 218 209 192 198 182 165 156 143 147 153 155 156 151 153 150 142 139 130 134 142 127 109 91 88 86 87 86 84 80 78 79 78 81 84 82 82 86 90 85 83 91 97 96 94 97 96 93 96 101 106 103 94 86
180 185 181 170 172 191 201 196 205 211 216 236 255 256 242 236 241 216 219 255 245 258 261 252 280 257 296 330 284 289 284 207 223 218 185 183 186 172 159 150 147 153 156 158 153 152 153 146 145 139 135 139 138 133 100 94 89 88 87 83 80 78 80 81 82 82 81 83 86 88 82 79 89 95 96 97 100 97 91 92 95 99 99 96 91
182 179 174 161 165 193 200 188 197 200 202 236 261 250 247 274 273 237 216 241 251 255 258 264 288 276 318 348 292 301 316 272 238 206 176 174 179 172 160 150 144 153 154 158 154 149 157 152 148 143 132 137 145 144 129 117 100 98 94 84 83 80 81 86 86 84 82 79 80 86 84 80 83 82 87 98 103 101 98 95 92 93 95 95 94
184 172 169 166 174 191 186 180 182 168 177 211 254 252 255 281 272 267 228 222 247 251 254 261 283 283 310 355 338 309 326 323 304 184 170 162 167 166 158 153 145 150 150 157 158 153 161 156 149 149 134 138 146 141 138 142 123 111 105 89 88 85 83 86 87 86 83 80 78 79 80 77 78 72 74 91 102 105 105 104 100 99 99 99 101
179 163 159 161 183 189 166 161 166 162 164 183 236 250 249 260 249 255 258 253 251 246 255 259 269 275 283 341 4 344 334 339 353 151 163 143 148 150 148 152 146 147 148 154 159 160 165 156 148 153 149 144 148 149 144 145 128 112 123 101 90 93 93 90 87 85 79 80 79 77 76 72 70 64 62 73 87 98 104 106 108 110 110 107 106
179 161 148 146 189 187 152 148 149 155 160 178 220 239 195 196 219 226 269 301 287 262 268 270 266 266 270 286 11 21 355 346 6 22 114 122 137 146 144 145 141 143 153 156 161 167 168 163 157 159 163 157 151 156 146 145 137 125 154 129 101 108 104 95 94 90 79 77 80 83 83 74 70 66 61 63 68 79 96 103 101 103 109 105 99
167 168 152 136 184 180 152 157 146 146 154 165 176 193 218 192 186 193 181 290 300 295 293 280 272 265 244 253 314 11 1 343 34 42 32 77 125 149 151 146 148 155 161 161 161 167 172 174 171 166 173 173 166 160 148 152 148 131 153 149 119 123 119 108 103 96 84 79 81 91 98 85 76 70 63 62 65 70 84 98 99 93 100 108 104
163 175 163 149 172 170 166 169 157 152 154 163 169 167 182 163 172 186 160 162 283 322 330 290 274 284 202 178 346 3 352 338 48 67 78 97 125 145 156 155 161 168 168 167 158 161 176 183 181 166 167 173 168 158 146 156 161 151 157 148 112 115 129 123 95 88 86 80 77 89 107 87 69 77 71 65 68 67 75 93 101 100 96 109 117
162 167 160 158 170 160 158 160 154 153 155 171 188 181 175 173 184 183 156 158 227 310 343 333 263 303 136 94 3 354 344 343 18 52 78 81 100 115 140 163 163 162 171 175 167 166 174 182 187 180 165 153 151 148 146 159 168 168 178 176 134 94 110 129 95 68 71 71 68 85 101 79 57 65 70 69 75 61 64 81 82 95 108 108 122
146 151 149 152 158 149 154 159 156 160 161 169 188 194 183 176 179 189 175 157 159 326 12 66 79 77 119 47 18 342 347 347 352 31 62 66 74 90 120 153 149 151 166 175 180 185 182 183 190 195 185 152 150 158 160 171 177 176 183 187 187 302 63 139 147 37 42 45 53 71 77 70 59 55 41 51 113 68 60 64 55 62 91 98 107
139 145 140 145 149 139 142 148 152 160 164 170 182 197 191 178 179 188 189 149 151 234 71 104 93 94 81 1 146 73 359 355 30 44 58 75 91 100 117 139 139 142 154 160 170 186 189 191 196 212 219 171 170 187 180 181 190 191 192 188 194 223 241 156 200 297 325 350 68 68 13 37 52 46 37 33 191 161 79 70 63 59 65 73 54
119 124 126 129 130 123 126 133 138 147 166 174 173 186 197 190 182 184 184 155 164 193 147 132 121 109 97 51 276 39 352 5 50 56 56 74 94 103 115 134 134 136 149 150 144 162 186 192 197 201 209 190 188 203 205 206 208 207 207 202 202 216 228 228 235 268 274 265 188 144 343 5 17 30 36 37 48 196 194 93 84 69 47 49 31
103 109 114 107 104 108 116 126 129 131 145 157 159 177 191 188 175 171 171 149 154 176 169 158 147 132 142 170 241 300 358 35 60 64 62 74 94 105 111 112 114 129 147 143 137 150 171 181 188 191 197 194 199 206 204 214 222 217 219 221 222 228 231 235 248 267 274 269 268 266 287 351 3 7 26 27 41 150 221 237 50 43 20 342 7
105 105 108 102 100 108 114 114 116 122 135 147 162 177 177 184 181 157 151 147 147 162 177 196 158 131 127 145 103 44 31 59 69 64 68 76 88 106 111 102 105 126 137 132 130 140 152 163 166 174 181 174 188 204 199 209 224 226 232 235 236 232 230 240 252 257 278 282 275 265 268 303 329 337 6 5 346 231 224 234 294 346 337 284 284
101 99 100 100 100 104 108 106 107 115 130 146 159 155 143 160 163 128 134 146 146 132 126 170 146 126 91 54 75 81 40 85 89 67 68 73 78 99 111 105 109 119 121 120 121 126 137 146 149 158 165 157 165 187 195 203 212 222 234 238 241 241 241 255 269 253 278 282 273 266 272 283 288 298 333 350 325 283 245 235 249 279 271 248 258
100 101 100 98 94 96 102 101 96 90 89 94 81 65 79 82 67 76 102 133 143 126 110 110 143 143 147 121 27 60 77 121 117 71 66 74 79 95 109 110 112 112 109 113 119 123 131 137 140 144 142 141 146 154 165 175 181 206 233 241 254 261 262 269 275 274 279 285 281 264 261 261 258 264 280 313 326 317 312 306 283 282 275 257 249
101 99 98 98 97 97 106 107 99 87 82 84 78 67 68 68 65 69 68 83 122 121 115 124 139 131 136 145 6 56 111 135 148 86 72 79 84 88 95 106 112 106 101 102 108 116 123 123 125 125 124 129 131 132 140 148 161 194 241 300 321 316 310 304 297 290 285 284 286 274 269 269 259 250 255 261 289 312 319 320 317 312 303 290 278
98 97 98 99 97 91 97 112 123 110 91 83 84 77 73 72 69 71 71 79 98 106 109 115 110 89 90 105 84 78 107 105 103 121 98 82 84 84 82 88 98 99 99 100 98 104 112 108 104 103 107 117 119 119 120 114 113 122 54 19 19 23 29 32 32 19 356 331 314 288 277 280 282 270 251 245 261 287 291 297 300 300 298 294 293
101 100 101 98 94 93 90 79 105 119 102 87 85 81 79 80 77 76 76 80 88 91 96 101 102 97 83 82 88 87 98 92 82 101 116 112 93 85 82 84 89 94 98 101 99 96 98 94 91 91 89 93 103 109 100 82 75 74 66 58 54 56 61 64 64 64 69 67 56 37 345 300 287 280 266 253 256 262 263 268 269 270 279 282 282
103 102 100 97 95 98 93 64 65 95 99 91 90 86 85 85 82 83 80 80 85 87 89 89 92 109 107 107 132 132 111 100 100 101 104 119 121 100 96 93 92 98 102 102 102 98 91 84 84 89 91 93 95 88 80 75 73 70 64 62 63 65 67 70 69 68 71 74 72 68 63 62 57 18 347 334 301 276 267 265 264 263 265 267 269
106 105 99 98 98 97 94 74 69 82 89 94 98 94 90 88 84 85 84 83 86 87 88 85 78 79 78 96 132 139 124 112 107 104 97 92 105 117 116 111 102 109 115 113 109 105 101 96 88 84 86 89 86 80 80 80 74 69 67 65 65 67 67 68 68 68 69 68 67 69 67 69 73 73 67 57 53 37 356 330 318 317 307 288 287
108 106 102 99 98 97 95 87 82 85 89 97 100 96 91 88 86 84 84 85 86 85 85 86 82 75 65 72 86 83 101 121 116 119 121 111 115 125 123 124 122 124 133 131 122 115 110 102 91 79 74 79 83 82 80 79 74 70 69 69 67 66 65 62 61 62 59 52 50 50 48 51 53 54 55 50 49 51 42 33 22 14 7 358 355
115 110 106 103 100 100 98 95 92 88 88 92 94 95 91 88 88 86 84 85 87 85 82 81 80 73 64 71 77 66 83 109 113 117 129 138 142 138 132 131 123 127 139 134 122 117 112 107 101 90 74 71 75 77 77 75 76 74 71 72 69 64 63 60 57 54 49 45 40 35 31 30 25 19 20 17 9 2 357 353 354 354 347 345 346
122 116 111 109 106 104 103 101 99 95 94 93 93 97 96 92 91 90 88 87 88 85 81 78 75 71 66 69 76 68 75 98 113 124 140 152 147 129 127 134 137 138 130 118 109 106 103 102 102 99 91 84 74 69 73 75 76 75 67 65 61 55 51 48 45 41 36 33 28 24 21 17 12 7 360 355 351 343 339 337 335 332 327 322 316
128 122 119 117 112 108 107 105 103 101 97 92 93 96 96 95 93 91 90 89 89 86 83 80 76 76 75 70 68 61 62 72 98 134 151 148 135 128 131 141 148 142 127 117 111 103 100 102 105 107 104 102 90 69 67 68 72 74 61 50 45 41 37 32 31 29 26 24 19 15 11 6 3 360 356 352 349 344 340 338 335 334 331 327 322
132 127 123 119 115 111 109 107 105 101 98 94 93 93 94 94 92 89 88 86 85 84 82 81 77 77 79 73 65 57 57 55 59 81 93 105 122 134 144 148 141 123 113 114 115 112 114 113 112 117 114 109 100 75 65 61 65 68 55 45 40 36 35 34 33 29 25 22 17 13 7 2 357 351 348 346 344 343 340 337 335 333 332 330 326
135 132 128 122 119 116 112 110 109 106 105 102 98 96 96 96 94 91 90 88 87 84 82 79 76 77 78 75 69 60 56 57 60 62 62 85 101 84 112 125 116 115 111 107 119 124 125 123 118 119 111 104 98 81 68 58 56 53 37 32 31 32 37 37 33 30 26 21 17 11 5 360 354 348 344 340 337 335 333 331 329 327 326 326 325
141 138 132 126 122 123 120 117 116 112 109 104 100 99 97 95 95 92 90 88 87 85 82 79 76 76 77 76 72 68 64 62 65 60 47 62 67 40 60 86 73 107 135 102 105 112 115 121 125 129 119 106 106 101 86 66 67 70 5 10 18 24 37 35 28 25 22 17 11 7 3 357 351 346 341 337 333 329 326 323 320 319 318 317 317
148 144 139 136 133 132 131 125 119 116 112 108 105 102 99 99 97 93 93 91 90 88 84 81 80 78 77 76 73 70 73 67 62 60 48 51 56 42 53 59 53 91 126 115 87 89 92 100 111 128 138 129 123 114 81 60 83 133 217 4 13 18 33 31 22 17 13 9 5 2 0 355 348 343 339 334 331 327 324 321 318 315 313 311 309
153 151 147 145 144 141 138 135 128 123 120 116 111 107 106 104 100 97 97 94 92 90 89 85 83 82 78 78 77 72 75 74 63 60 53 52 58 55 59 57 55 91 121 121 94 84 92 92 92 113 131 130 137 144 105 47 59 126 179 349 7 12 24 23 14 8 3 359 356 354 353 350 345 340 336 332 329 325 323 322 319 317 315 312 310
158 157 155 154 152 152 148 143 138 134 130 124 119 114 109 104 103 105 103 99 96 89 93 94 86 88 86 82 81 74 76 81 75 73 63 57 66 69 71 66 55 76 107 107 93 84 96 110 117 118 133 137 135 137 123 56 20 70 203 274 357 359 18 19 5 357 351 348 346 344 344 346 345 340 335 332 330 327 325 323 320 319 317 315 313
164 162 162 161 159 158 156 151 147 146 142 135 131 125 116 113 112 111 107 105 103 96 97 100 95 96 96 91 88 77 78 82 73 89 88 68 82 89 85 83 71 77 102 111 115 117 111 124 130 122 151 158 134 125 113 65 9 17 205 251 352 345 331 6 355 345 343 340 337 335 336 341 346 346 341 337 334 329 326 324 322 320 318 316 314
169 168 168 167 165 164 162 161 159 155 152 148 144 138 131 128 121 119 121 107 104 108 105 101 107 105 93 95 97 83 81 75 56 78 87 37 64 95 90 83 75 70 89 116 133 144 146 154 154 137 136 126 130 147 153 38 26 66 160 194 9 3 348 359 352 340 335 332 330 330 331 335 342 347 350 349 345 337 330 325 320 317 315 314 313
174 174 174 172 170 170 169 168 166 164 163 161 160 158 151 149 147 138 129 108 103 110 112 125 127 115 90 88 102 93 80 71 56 71 75 29 49 82 88 81 75 55 48 72 109 139 151 158 156 146 133 82 127 161 151 65 26 30 27 225 52 37 18 7 352 339 334 333 329 326 325 327 334 343 349 349 347 344 339 333 324 319 318 317 317
178 180 180 178 176 176 176 175 174 175 173 171 176 178 172 170 172 163 146 137 141 132 28 274 117 119 130 105 103 105 90 84 73 75 79 45 56 82 100 99 104 90 52 45 42 66 100 108 121 130 122 63 18 8 44 46 4 359 356 1 35 30 9 359 348 338 333 330 325 319 318 323 330 338 341 342 343 340 339 337 332 329 327 325 323
181 185 184 182 184 182 182 181 179 180 180 179 182 187 187 190 197 199 203 242 68 25 339 324 346 19 43 210 150 133 102 99 92 71 80 73 60 63 54 73 105 123 103 68 44 52 64 56 76 109 88 49 36 19 12 330 331 359 16 17 30 23 1 352 345 336 328 324 320 313 313 322 331 335 335 335 335 332 331 331 329 328 326 323 323
182 189 187 187 189 185 187 193 190 187 187 184 185 195 201 203 228 312 358 4 1 352 321 295 306 327 326 311 274 185 139 120 136 39 76 86 71 22 26 44 77 113 109 89 60 58 70 63 56 54 13 14 17 11 350 324 342 22 20 8 9 3 355 347 337 330 327 324 320 314 314 325 332 331 329 329 328 325 324 321 319 321 318 316 321
185 189 190 190 191 190 196 198 193 189 189 183 189 200 203 194 221 299 338 335 311 296 295 278 274 287 306 315 313 282 203 202 219 246 55 62 320 290 345 23 48 76 78 79 71 55 59 59 39 20 359 359 13 356 347 352 6 10 3 359 355 350 347 338 328 327 328 325 324 320 317 322 323 322 322 322 321 320 318 314 315 317 312 309 315
184 190 192 192 191 194 194 177 121 126 169 191 208 191 184 205 238 252 287 291 277 273 277 273 268 262 270 306 315 302 269 247 218 212 208 215 301 329 326 342 8 34 38 53 66 51 43 45 37 19 355 352 31 10 354 2 4 359 359 360 352 343 336 326 323 326 326 324 324 318 313 315 315 314 316 319 320 321 318 315 317 316 307 304 310
189 193 194 191 189 183 163 165 170 165 180 242 280 206 189 257 279 292 303 297 279 270 261 240 240 244 222 237 277 287 285 269 222 212 211 218 246 317 320 317 303 313 20 23 17 7 6 14 27 15 355 356 14 8 3 8 10 8 7 358 347 336 326 320 320 323 323 321 319 315 313 314 312 311 316 320 323 323 321 320 319 314 308 306 311
192 191 189 188 186 178 146 161 189 193 194 231 278 265 252 268 288 308 314 313 286 264 250 202 194 193 193 196 208 256 273 270 256 239 230 240 257 263 264 256 215 191 22 359 345 343 341 344 4 10 2 6 11 9 11 17 18 11 357 347 339 331 324 320 318 321 321 316 313 310 308 309 311 312 315 317 316 317 319 319 318 316 314 313 314
181 173 174 176 177 177 166 160 165 183 191 209 263 271 272 270 270 279 101 95 92 122 137 132 144 147 162 176 170 211 259 269 268 256 253 258 257 252 252 246 227 211 166 29 355 343 336 338 348 12 21 19 18 12 5 2 352 339 338 339 334 325 323 321 317 317 316 312 311 308 306 311 316 312 309 312 315 318 319 317 316 316 315 314 313
156 137 131 133 145 169 174 167 165 179 191 213 253 262 255 231 198 149 126 118 109 112 105 94 113 136 153 147 138 150 169 179 284 282 275 280 269 252 250 250 249 250 247 246 310 39 36 20 21 31 26 21 25 14 348 336 330 325 327 329 325 317 316 315 308 305 307 311 312 308 307 315 318 307 305 313 316 316 316 316 316 317 316 316 315
144 136 133 134 149 172 172 172 183 191 198 213 224 208 167 158 153 135 121 129 125 118 105 92 97 114 132 141 143 147 144 150 229 277 305 326 313 280 261 258 257 261 263 259 256 269 326 17 46 41 30 30 39 19 340 331 330 327 323 317 311 305 303 302 299 300 309 318 314 302 299 306 309 302 303 311 314 314 315 315 315 317 319 319 317
145 151 163 165 169 173 169 183 195 190 188 191 183 168 157 155 149 130 117 121 117 107 100 91 85 89 95 112 131 132 118 122 156 217 327 354 4 33 21 327 305 273 259 254 249 257 275 271 238 40 5 327 355 334 316 317 317 313 307 301 298 297 298 299 300 305 315 323 311 292 284 295 308 306 304 309 314 314 315 315 315 316 317 316 316
152 159 170 170 172 170 166 173 176 169 167 171 169 170 168 161 151 134 122 122 115 104 99 97 98 105 98 89 110 127 125 124 128 119 46 26 47 79 82 77 80 96 162 218 229 224 232 243 243 259 286 292 299 301 303 305 300 294 290 289 293 298 301 302 304 308 317 326 320 304 293 306 317 314 310 314 318 317 316 317 318 319 318 318 322
152 150 151 154 157 155 155 162 167 166 171 173 172 176 174 165 155 148 143 136 122 110 110 109 104 108 105 99 109 121 124 133 139 134 106 77 88 109 115 118 113 89 66 265 257 238 244 266 273 278 289 297 304 305 305 304 302 298 296 301 309 313 312 309 308 312 320 326 328 325 320 321 321 319 318 319 319 318 318 319 321 321 323 327 330
143 142 145 150 152 150 152 163 170 168 168 171 171 172 172 170 165 159 149 137 126 118 121 119 105 109 112 112 115 106 108 141 157 168 162 135 114 142 149 139 128 317 300 283 269 267 277 286 290 298 308 314 315 315 315 317 315 312 315 327 330 324 317 312 310 317 324 326 328 328 325 324 325 325 325 322 318 317 319 322 325 323 324 328 328
147 148 149 150 151 154 157 165 171 167 165 169 170 171 174 174 170 164 142 135 136 138 142 131 117 129 135 132 126 103 99 127 153 173 172 150 53 124 168 165 189 261 256 261 272 284 299 307 314 320 323 322 319 318 320 324 323 318 323 335 334 320 309 309 312 317 320 326 340 341 335 333 332 331 330 325 318 315 315 317 320 321 323 325 324
154 158 164 157 152 154 157 159 165 167 167 170 173 177 180 177 174 172 149 143 154 158 150 141 134 145 154 159 157 128 106 118 141 164 172 149 36 66 145 160 101 102 163 283 303 314 330 329 326 324 320 314 311 313 316 314 308 300 301 322 336 318 292 299 309 313 311 324 354 352 347 342 336 335 336 332 321 312 313 317 320 322 323 324 327
Height
812 813 814 815 816 817 818 819 820 821 821 821 821 822 822 822 824 825 825 825 825 825 825 826 826 826 826 828 829 829 830 829 828 830 830 830 830 831 832 832 833 835 836 837 838 839 839 839 840 840 841 842 842 843 843 843 844 844 844 845 844 844 845 845 845 845 846 846 846 847 848 848 848 848 848 849 849 849 849 849 849 850 850 851 851
812 813 814 816 817 817 818 819 820 821 821 820 820 822 821 822 824 824 825 825 825 825 824 825 825 825 826 828 828 829 830 829 828 829 830 830 830 831 831 832 833 835 836 837 839 840 840 840 840 841 842 843 843 844 844 844 845 845 845 846 846 846 846 846 846 846 846 847 847 848 848 849 849 849 849 849 850 850 850 850 850 850 851 851 852
813 814 815 816 817 817 818 819 820 820 820 819 820 822 822 823 824 823 823 823 824 824 824 824 824 825 827 828 827 828 830 830 828 829 829 830 830 831 832 832 833 835 836 838 839 840 841 841 841 842 843 844 844 844 845 845 845 846 846 846 847 847 846 847 847 847 847 847 848 848 849 849 850 850 850 850 850 851 851 851 851 851 851 852 852
812 814 815 816 817 817 817 818 819 819 819 819 819 821 822 823 823 822 822 822 823 823 823 823 824 825 827 829 828 828 831 831 830 829 829 830 830 832 832 833 834 835 837 838 839 841 841 842 842 842 843 844 845 845 845 845 846 846 847 847 847 847 847 847 848 848 848 848 849 849 850 850 850 851 851 851 851 851 852 852 852 852 852 852 853
813 814 815 816 816 816 817 817 817 818 818 818 818 820 821 822 822 822 822 822 822 823 824 824 824 825 826 828 827 827 831 833 832 830 830 831 831 832 833 834 835 836 837 838 839 841 842 843 843 843 844 845 845 845 846 846 846 846 847 847 848 848 848 848 848 849 849 849 850 850 851 851 851 851 852 852 852 852 852 853 853 853 853 853 853
813 814 815 816 816 816 817 817 816 817 817 817 818 819 821 822 822 822 822 823 823 823 824 824 824 824 825 827 827 828 832 835 835 832 831 831 832 833 834 835 836 837 838 839 840 841 842 843 844 844 844 845 846 846 847 847 847 847 847 848 848 848 848 849 849 849 850 850 850 851 851 852 852 852 852 852 852 853 853 853 854 854 854 854 854
812 814 815 816 816 816 817 817 817 818 818 819 820 820 821 822 822 823 824 824 824 824 824 823 823 824 824 826 827 828 831 835 838 836 833 832 832 833 834 835 837 838 838 839 840 841 843 843 844 844 844 845 846 847 848 848 848 848 848 848 848 848 849 849 850 850 850 850 851 851 852 852 852 853 853 853 853 853 853 854 854 854 855 855 855
813 814 816 816 815 816 816 816 817 818 819 820 821 821 822 822 823 824 824 824 824 824 824 824 824 824 825 825 827 828 830 833 837 837 836 835 835 835 834 835 836 837 838 838 840 841 843 844 844 844 844 845 846 847 848 848 848 848 848 848 848 849 849 850 850 850 851 851 851 851 852 852 852 853 853 853 854 854 854 854 855 855 855 856 856
813 814 816 817 817 817 817 817 818 819 820 820 821 822 822 823 823 824 824 824 824 824 824 824 824 825 825 826 828 828 830 832 834 835 835 834 835 835 835 835 836 837 838 839 840 842 843 844 845 845 845 845 846 847 848 849 849 849 849 848 848 849 849 850 850 851 851 851 851 852 852 853 853 853 854 854 854 854 855 855 855 856 856 856 856
813 815 816 818 818 818 818 818 818 819 820 821 821 822 822 823 823 824 824 824 824 824 824 824 824 825 825 827 828 829 829 830 832 834 835 834 833 835 836 837 838 838 839 840 841 842 843 844 845 845 846 846 847 847 848 848 849 849 849 849 849 849 850 851 851 851 852 852 852 852 853 853 853 854 854 854 855 855 855 855 856 856 856 857 857
813 814 816 817 817 817 817 817 818 820 821 821 822 822 823 823 823 824 824 824 824 824 824 824 824 825 826 827 828 829 830 830 832 833 835 837 836 836 838 839 839 839 840 841 842 843 844 845 845 846 847 847 848 848 848 848 849 849 849 850 850 850 850 851 851 851 852 852 852 852 853 853 853 854 854 855 855 855 855 856 856 856 857 857 857
815 815 816 816 817 817 817 818 819 820 821 822 822 822 823 823 823 824 824 824 824 824 825 825 825 825 826 827 828 830 830 831 832 833 835 838 838 838 837 837 838 838 839 840 842 843 844 846 846 847 848 848 849 849 849 849 850 850 850 850 851 850 850 850 851 851 851 852 852 852 853 853 854 854 854 855 855 855 856 856 856 856 857 857 858
816 816 817 817 816 817 818 819 820 821 822 822 823 823 823 822 823 823 823 824 824 825 825 825 826 826 827 828 829 829 830 831 833 834 836 838 839 839 836 835 836 837 838 838 840 842 843 845 846 847 847 847 848 849 850 850 850 850 850 850 850 850 850 850 851 851 851 852 852 852 853 853 854 854 854 855 855 856 856 856 856 856 857 857 858
816 816 817 817 817 817 818 819 820 821 822 823 823 823 823 823 822 823 823 824 824 825 824 825 826 827 827 828 829 829 830 831 833 835 836 838 839 839 836 835 835 836 837 837 838 841 843 844 845 845 845 846 847 848 848 849 849 849 850 850 850 850 850 850 850 851 851 851 852 852 853 853 853 854 854 855 855 855 855 855 856 856 856 857 857
816 816 816 817 817 818 819 820 821 821 822 823 823 823 823 823 823 823 823 823 824 825 825 825 825 826 827 827 828 829 830 831 834 835 836 837 838 839 838 836 836 837 838 839 839 839 841 843 844 844 843 845 846 846 847 848 848 849 849 849 849 850 850 850 850 850 851 851 852 852 853 853 853 854 854 854 855 855 855 855 855 856 856 856 857
816 816 817 818 818 819 820 820 821 822 823 823 823 823 823 822 822 823 823 824 825 825 825 825 826 826 826 827 827 829 832 833 834 836 837 838 838 838 839 838 838 839 840 840 840 840 841 842 843 843 842 844 845 846 846 847 848 848 848 848 849 849 849 850 850 850 851 851 851 852 853 853 853 853 854 854 854 854 854 855 855 855 855 856 856
817 817 818 818 819 819 820 821 822 822 823 823 823 823 822 822 823 823 823 824 824 825 825 826 827 827 827 827 828 830 832 832 834 837 838 838 839 839 840 839 840 841 841 841 840 840 841 842 843 843 843 844 845 846 846 847 848 848 848 848 848 849 849 849 850 851 851 851 851 852 852 852 851 853 853 853 853 854 855 855 855 855 855 855 856
817 817 818 819 819 820 820 821 822 823 823 823 823 824 823 823 823 823 824 824 824 825 826 826 827 827 827 827 828 829 830 831 834 838 840 840 840 841 841 841 841 842 842 841 841 841 842 842 843 843 844 845 845 846 846 847 847 847 847 848 848 848 848 849 849 850 850 851 851 852 851 850 851 852 853 853 853 854 855 855 856 855 855 855 855
816 817 818 819 820 820 821 821 822 822 823 824 824 824 825 824 824 824 824 824 824 825 826 827 826 827 827 827 828 828 829 831 833 836 840 842 841 841 842 842 842 843 843 842 842 842 843 844 844 844 845 845 846 846 846 846 847 847 847 848 848 848 848 849 849 849 849 850 850 850 850 850 851 852 852 852 853 854 854 855 855 855 855 855 855
816 817 818 819 820 820 821 821 822 822 823 824 825 825 825 825 825 825 824 824 824 825 826 826 826 827 827 827 828 829 829 830 831 833 837 841 843 843 843 844 844 845 845 844 843 843 843 844 845 846 846 846 845 845 845 846 846 847 847 848 849 849 849 849 849 849 849 850 850 850 850 850 851 851 851 851 852 852 853 854 854 854 854 854 854
816 817 818 819 820 820 821 821 822 822 823 824 825 826 826 826 826 825 825 825 825 826 826 826 826 826 826 826 828 829 829 830 831 832 834 839 843 843 844 845 846 846 847 846 846 845 844 845 846 847 847 846 846 845 845 846 846 847 848 848 849 850 850 850 850 850 850 850 851 851 851 851 851 851 851 851 851 851 852 852 853 853 853 853 853
816 817 818 819 820 821 821 822 822 822 823 825 825 826 827 826 826 826 826 826 826 826 826 827 826 826 826 827 828 828 829 830 831 832 834 837 841 843 844 846 846 847 848 847 847 847 847 847 847 847 847 847 847 847 847 847 847 848 849 850 850 851 851 852 852 852 852 852 852 852 852 851 851 851 852 852 852 851 851 852 852 852 852 852 852
816 817 818 819 820 821 821 822 822 823 824 825 826 827 827 827 827 826 826 827 827 827 827 827 827 827 827 827 827 827 828 829 830 831 833 835 839 842 843 845 845 846 847 847 848 848 849 849 849 849 849 849 849 848 849 849 849 850 850 851 852 852 853 853 853 853 853 853 853 853 853 852 852 852 852 852 852 852 852 852 851 851 851 851 852
817 817 818 819 820 820 821 822 823 824 824 825 826 827 827 827 827 827 827 828 828 828 827 827 827 827 827 827 827 827 827 828 829 830 832 833 836 838 840 843 844 845 846 848 849 849 850 851 851 851 850 850 850 850 850 850 851 851 852 853 853 854 854 854 854 854 854 854 854 853 853 853 853 853 853 853 852 852 852 851 851 851 850 851 851
817 817 818 819 819 820 821 822 823 823 824 825 826 827 827 827 828 828 828 828 829 829 828 828 828 828 828 827 828 828 828 829 829 830 831 832 833 835 838 841 842 844 846 848 849 850 851 852 853 853 853 852 852 852 852 852 852 853 853 854 854 854 855 855 855 855 855 854 854 854 854 854 854 853 853 853 853 852 852 851 851 851 850 850 850
817 817 817 818 819 820 821 822 823 823 824 825 825 826 827 827 828 828 828 829 829 829 829 829 829 829 829 829 829 828 829 830 830 830 831 831 832 834 836 839 841 842 844 847 850 851 853 854 854 854 854 854 854 854 853 854 854 854 855 855 855 855 855 855 855 855 855 855 854 854 854 854 853 853 853 853 852 852 851 851 850 850 850 850 850
816 816 817 818 819 820 821 822 823 824 824 825 825 826 827 827 828 828 829 830 830 830 830 830 830 830 830 830 830 830 830 830 830 830 831 832 832 833 835 837 839 841 843 846 849 851 853 854 855 855 855 855 855 855 855 855 855 855 856 856 856 856 856 856 856 856 855 855 855 854 854 854 853 853 853 852 852 851 851 851 850 850 850 850 849
815 816 817 818 819 820 822 823 823 824 825 825 826 826 827 828 828 829 830 830 831 831 831 831 832 832 832 832 832 832 831 830 830 830 831 832 833 834 834 835 838 841 843 846 848 850 852 854 855 856 856 856 856 856 856 856 856 856 856 857 857 857 856 856 856 856 855 855 855 854 854 854 853 853 852 852 851 851 851 851 850 850 849 849 849
816 816 817 818 819 821 822 823 824 824 825 825 826 827 827 828 828 829 830 831 832 832 833 833 833 834 834 834 834 834 834 833 833 833 833 833 833 834 835 835 836 838 842 846 848 850 852 853 855 856 857 857 857 858 858 857 857 857 857 858 858 857 857 857 856 856 856 855 855 855 854 854 853 853 852 851 851 851 850 850 850 850 849 848 848
815 816 818 818 820 821 822 823 824 825 825 826 827 827 828 828 829 830 831 832 833 833 834 835 835 835 836 836 836 836 836 836 835 835 835 834 835 835 836 836 836 837 840 845 848 850 852 853 855 856 857 858 858 858 859 859 859 858 858 859 858 858 857 857 857 856 856 855 855 855 854 853 853 852 851 851 850 850 849 849 849 849 848 848 848
815 816 818 819 820 821 822 823 824 825 826 827 827 828 828 829 830 831 832 833 834 834 835 835 836 836 837 837 837 837 838 838 837 837 837 836 837 837 837 838 838 839 840 843 848 851 852 854 855 856 857 858 858 859 859 859 859 859 859 858 858 858 857 857 857 856 856 855 855 854 854 853 852 851 851 850 849 849 848 848 848 847 847 847 846
815 816 818 819 821 822 823 824 825 826 827 827 828 829 829 830 831 832 833 834 834 835 836 836 837 837 837 837 838 838 838 838 838 839 839 838 838 838 839 840 840 841 842 844 848 852 853 854 856 857 857 858 858 859 859 860 859 859 859 858 858 857 857 857 856 856 856 855 855 854 854 853 852 851 850 849 849 848 847 847 847 846 846 845 845
815 816 818 819 821 822 824 825 826 827 827 828 829 830 830 831 832 833 833 834 835 835 836 836 837 837 837 838 838 838 838 838 839 839 839 839 839 840 840 841 842 843 844 846 848 851 853 855 856 857 857 858 858 859 860 860 859 858 858 858 857 856 855 855 856 856 856 855 854 854 853 853 852 851 850 849 848 847 846 846 845 845 844 844 843
815 817 818 820 821 823 824 825 827 827 828 829 830 830 831 832 832 833 834 834 835 835 836 836 837 837 838 838 838 839 839 839 839 839 839 839 840 840 841 842 843 844 845 846 848 850 852 853 855 856 857 857 857 858 858 858 858 857 857 857 857 856 856 855 855 855 855 854 854 853 852 852 851 850 849 848 847 846 845 845 844 843 843 842 842
816 818 819 820 822 823 825 826 827 828 829 829 830 831 832 833 833 834 834 835 835 836 836 837 837 838 839 839 839 839 840 840 840 839 840 840 840 840 842 843 844 845 846 847 848 849 850 852 853 855 856 856 857 857 857 857 858 858 858 857 857 857 857 856 855 855 854 853 853 852 851 851 851 850 848 847 846 846 845 844 843 842 841 841 840
816 818 820 821 823 824 825 826 827 828 829 829 830 831 832 833 834 835 835 836 836 837 837 838 839 839 840 840 840 840 841 841 841 841 841 841 841 841 842 843 844 845 846 847 848 848 850 851 853 854 855 856 856 856 856 857 857 857 858 857 857 857 857 857 857 856 854 853 852 851 850 850 849 848 847 846 845 845 844 843 842 841 840 840 839
817 819 821 823 824 825 826 827 827 828 829 830 831 832 833 834 835 836 837 837 838 838 839 839 840 841 842 842 841 841 841 841 841 842 842 842 842 842 843 844 844 846 846 847 848 849 849 851 852 853 854 854 855 855 856 856 856 856 856 856 855 855 856 856 857 857 855 853 851 850 849 848 848 847 846 845 844 844 843 842 841 840 840 839 838
818 820 822 824 825 826 826 827 828 829 829 830 831 832 834 835 836 837 837 838 839 839 840 840 840 842 843 844 843 842 842 842 842 842 842 843 843 843 843 844 845 846 847 847 848 849 850 851 852 852 853 853 853 854 855 855 855 855 855 855 855 855 855 856 856 856 855 853 851 849 848 848 847 846 845 844 843 842 842 841 840 839 839 838 837
819 821 823 824 826 826 827 828 828 829 830 831 832 833 834 835 836 837 837 838 839 839 839 840 840 842 844 846 846 844 843 843 843 843 843 843 843 844 844 845 846 846 847 848 848 849 850 850 851 852 852 853 853 854 854 854 854 854 854 854 854 855 855 856 855 854 854 853 851 850 849 847 846 846 845 843 842 841 840 839 839 838 837 836 836
820 822 823 825 826 827 827 827 828 829 831 832 833 833 833 834 835 836 837 837 837 837 838 838 839 841 843 845 846 845 844 844 844 844 844 844 844 845 845 845 846 846 847 848 848 848 849 850 851 852 852 853 853 853 854 853 853 854 854 854 854 855 855 855 855 854 852 851 851 850 848 847 846 845 844 842 841 840 839 838 838 837 836 835 835
820 822 823 824 825 825 825 825 827 829 830 833 834 833 833 834 835 836 836 836 836 835 836 837 838 840 841 842 844 844 844 844 844 844 845 845 845 846 846 846 846 847 847 848 848 849 850 850 851 852 852 853 853 853 853 853 854 854 854 854 854 854 854 854 853 853 852 850 849 848 847 846 845 843 842 841 840 839 838 837 837 836 835 835 834
820 821 822 824 824 825 825 826 828 828 829 832 835 834 833 834 835 836 836 836 835 834 835 836 838 839 840 841 842 843 844 844 844 844 845 845 846 846 847 847 847 847 848 849 849 850 850 850 851 851 852 852 853 853 853 853 854 854 854 854 854 854 853 852 851 851 851 850 848 846 845 845 843 841 841 840 839 838 837 836 836 835 834 833 833
818 820 821 823 823 824 826 827 828 828 828 830 833 833 833 834 835 836 837 837 836 835 836 836 837 838 839 840 842 843 843 843 844 844 844 845 845 846 847 847 848 848 848 849 850 850 850 851 851 851 852 852 853 853 854 854 854 854 854 854 854 853 853 852 850 849 849 849 847 844 842 842 842 840 839 839 838 838 837 836 835 835 833 832 832
818 819 820 822 823 824 825 826 827 827 828 829 831 833 833 834 835 836 837 837 837 837 837 837 838 839 839 840 842 842 843 843 844 844 844 845 845 846 846 847 848 848 849 850 850 851 851 851 851 851 851 852 853 853 854 854 854 854 854 854 854 854 853 852 850 848 847 847 846 843 840 840 840 839 838 838 838 837 837 836 835 834 833 832 831
818 818 820 821 822 824 825 826 826 827 828 829 831 832 833 834 835 836 836 837 837 838 838 838 839 840 840 841 841 842 843 844 844 844 844 845 845 845 846 847 847 848 849 850 850 851 851 852 852 852 852 852 853 853 854 853 853 854 854 854 854 853 852 851 849 847 846 845 844 841 839 838 838 837 837 837 837 836 836 835 834 833 832 831 830
817 818 820 821 822 823 824 825 825 825 827 828 830 831 833 834 835 835 836 837 837 837 838 839 839 840 841 841 842 842 843 844 844 844 845 845 845 845 846 846 847 848 848 849 850 850 851 851 852 852 852 853 853 854 854 854 854 854 854 853 853 852 851 850 848 847 845 844 843 840 838 837 837 836 836 835 835 835 835 834 833 832 831 830 830
817 818 820 820 821 822 823 824 824 825 826 827 829 831 832 834 835 835 836 836 836 837 838 838 839 839 840 841 841 842 843 844 845 845 845 846 846 846 847 847 847 848 848 849 849 850 851 851 852 852 852 853 853 853 854 854 854 853 853 852 852 851 849 848 846 845 844 843 842 840 837 836 836 836 834 834 834 834 833 833 832 831 831 829 828
818 819 820 820 821 822 823 824 824 825 826 827 828 830 832 833 834 835 835 836 836 837 837 838 839 840 841 841 841 842 844 845 845 846 846 847 847 847 847 847 848 848 848 849 850 850 851 851 852 852 852 853 853 853 853 853 852 852 852 851 850 850 848 847 845 844 844 843 841 840 837 836 836 835 833 833 833 832 831 831 831 830 829 828 827
818 819 820 820 821 822 822 824 824 825 826 827 828 830 831 832 833 834 834 835 835 837 837 838 840 841 841 842 842 843 845 845 846 846 847 847 848 848 848 847 848 848 848 849 850 850 851 851 851 852 852 852 852 852 852 851 851 850 850 849 849 849 848 847 845 844 844 843 841 839 838 836 836 834 832 831 831 831 830 830 829 828 827 827 826
818 819 820 820 821 822 822 823 824 825 826 827 828 829 830 831 832 833 833 834 835 836 837 838 840 841 842 843 843 844 845 845 846 846 846 847 847 847 847 848 848 848 848 849 849 850 850 850 850 851 851 851 851 851 851 850 850 849 849 849 848 848 847 847 845 844 843 842 841 839 838 837 835 834 832 830 830 830 830 829 828 827 826 825 824
817 819 820 820 821 822 822 823 824 825 826 826 827 828 829 830 831 831 832 833 834 835 836 837 839 840 841 843 843 844 844 845 845 845 846 847 847 846 847 847 848 848 849 849 850 849 849 849 850 850 850 850 850 850 850 849 849 848 848 848 848 847 847 846 845 844 843 842 840 839 839 837 836 836 835 832 829 828 829 828 827 826 826 824 823